www.pogodaiklimat.ru

АРХИВ ПОГОДЫ в Юкайе

Время (UTC), дата Ветер
(напр.,м/с)
 
Видим.   Явления Облачность Т
(С)
Тd
(С)
f
(%)
Тe
(С)
Тes
(С)
Комфортность

P
(гПа)

Po
(гПа)
Тmin
(С)
Tmax
(С)
R
(мм)
SD
(см)
11:37 23.03   16 км    5/5 720 м  +6.7  +5.0  89  +6  +6      997.8         
11:56 23.03   16 км    ясно  +6.7  +4.4  85  +6  +6    1020.3  998.1         
12:56 23.03   16 км    ясно  +5.6  +4.4  92  +5  +5    1020.9  998.4         
13:56 23.03   11 км    ясно  +5.6  +4.4  92  +5  +5    1021.4  999.1         
14:43 23.03   8 км  дымка  2/2 60 м  +6.7  +5.6  93  +6  +6      999.4         
14:56 23.03   13 км    ясно  +7.2  +5.6  90  +6  +7    1021.6  999.4         
15:04 23.03   11 км    2/2 60 м  +7.2  +5.6  90  +6  +9      999.4         
15:56 23.03   16 км    ясно  +9.4  +6.1  80  +9  +13    1021.6  999.4         
16:56 23.03   16 км    ясно  +12.2  +6.7  69  +12  +20    1021.7  999.4  +5.0  +12.2     
17:56 23.03 СЗ  16 км    5/5 960 м  +12.8  +3.3  52  +11  +15    1021.8  999.4         
18:56 23.03 СЗ  16 км    ясно  +15.0  +1.7  41  +14  +18    1021.8  999.4         
19:56 23.03 СЗ  16 км  слабый дождь  8/8 1800 м
[средняя] 
+13.3  +2.8  49  +12  +14    1021.7  999.4         
20:56 23.03 З  4
{9} 
16 км    10/2 1440 м
[средняя] 
+13.9  +4.4  53  +12  +14    1021.8  999.4         
21:56 23.03 СЗ  7
{10} 
16 км    ясно  +15.0  +2.8  44  +13  +15    1021.3  999.1         
22:56 23.03 СЗ  16 км    ясно  +14.4  +3.3  47  +13  +18    1021.2  999.1  +12.2  +15.6     
23:56 23.03 СЗ  16 км    ясно  +13.9  +2.8  47  +13  +16    1021.3  999.1         
00:56 24.03 З  16 км    ясно  +12.2  +1.7  49  +11  +12    1021.9  999.4         
01:56 24.03 ЮВ  16 км    ясно  +11.1  +2.2  54  +11  +11    1022.3  999.8         
02:56 24.03 З  16 км    ясно  +8.9  +3.3  68  +8  +8    1022.8  1000.4         
03:56 24.03   16 км    ясно  +7.8  +3.9  76  +7  +7    1023.4  1001.1         
04:56 24.03   16 км    ясно  +6.1  +3.3  82  +5  +5    1023.8  1001.4  +6.1  +15.0     
05:56 24.03 СЗ  16 км    ясно  +6.1  +3.3  82  +4  +4    1023.4  1001.1         
06:56 24.03   16 км    ясно  +5.6  +3.3  85  +5  +5    1023.4  1001.1         
07:56 24.03   16 км    ясно  +4.4  +2.8  89  +3  +3    1023.1  1000.8         
08:56 24.03   16 км    ясно  +3.9  +2.2  89  +3  +3    1023.2  1000.8         
09:56 24.03   16 км    ясно  +3.9  +2.2  89  +3  +3    1023.0  1000.8         
10:56 24.03   16 км    ясно  +3.9  +2.2  89  +3  +3    1022.5  1000.1  +3.3  +6.7     
11:21 24.03   16 км    5/5 210 м  +3.3  +2.2  92  +2  +2      1000.4         
11:33 24.03   16 км    8/8 150 м  +3.9  +1.7  86  +3  +3      1000.4         
11:54 24.03   16 км    8/8 90 м  +4.0  +2.0  87  +3  +3      1000.8         
11:56 24.03   16 км    8/8 90 м  +3.9  +2.2  89  +3  +3    1023.1  1000.8         
12:16 24.03   3 км  дымка  10/10 60 м  +3.9  +2.8  93  +3  +3      1000.8         
12:25 24.03   800 м  туман  10/10 60 м  +3.9  +2.8  93  +3  +3      1000.8         
12:51 24.03   3 км  дымка  10/10 90 м  +4.0  +3.0  93  +3  +3      1000.8         
12:56 24.03   2 км  дымка  10/10 90 м  +3.9  +3.3  96  +3  +3    1023.2  1000.8         
13:14 24.03   1 км  дымка  ?/?  +3.9  +2.8  93  +3  +3      1000.8         
13:30 24.03   400 м  туман  ?/?  +3.9  +2.8  93  +3  +3      1000.8         
13:56 24.03   400 м  туман  ?/?  +3.9  +3.3  96  +3  +3    1023.4  1001.1         
14:45 24.03   800 м  туман  ?/?  +3.9  +3.3  96  +3  +3      1000.8         
14:56 24.03   800 м  туман  ?/?  +4.4  +3.9  97  +3  +3    1023.5  1001.1         
15:49 24.03   2 км  дымка  10/10 60 м  +5.0  +3.9  93  +4  +4      1001.4         
15:56 24.03   2 км  дымка  10/10 60 м  +5.0  +3.9  93  +4  +4    1023.8  1001.1         
16:08 24.03   3 км  дымка  10/10 60 м  +5.0  +4.4  96  +4  +4      1001.1         
16:19 24.03   11 км    10/10 60 м  +5.6  +4.4  92  +5  +5      1000.8         
16:46 24.03   16 км    5/5 60 м  +7.2  +5.0  86  +6  +11      1000.8         
16:56 24.03   16 км    2/2 90 м  +8.3  +5.0  80  +8  +14    1023.1  1000.8  +3.3  +8.3     
17:56 24.03 Ю  16 км    ясно  +11.1  +6.1  71  +10  +19    1022.6  1000.1         
18:56 24.03 Ю  16 км    2/2 1410 м  +15.0  +5.6  53  +14  +19    1021.9  999.4         

 

Местоположение метеостанции Ukiah Municipal Airport: широта 39.1258 долгота -123.2008 высота над уровнем моря 187 м.

В архиве по умолчанию представлена погода в Юкайе за последние 1-2 суток. Обновление информации о фактической погоде в базе происходит ежечасно! Архивные данные за месяц целиком и за предыдущие месяцы Вы можете получить, выбрав интересующий диапазон дат из раскрывающегося списка и нажав кнопку "Ввод!".

Внимание! Архив погоды МЕТАР в базе сайта в настоящее время начинается c 1 января 2011 г. Нет смысла пытаться выбрать более раннюю дату.

Внимание! Время в таблицах - всемирное. Для получения местного времени необходимо прибавить поправку, которая в Юкайе равна -8 ч.

Ветер - указаны скорость ветра в м/с и направление, откуда дует ветер: С - северный, СВ - северо-восточный, В - восточный, ЮВ - юго-восточный, Ю - южный, ЮЗ - юго-западный, З - западный, СЗ - северо-западный.
Видимость - горизонтальная дальность видимости в метрах или километрах. При видимости от 1 до 10 км при отсутствии осадков обычно наблюдается дымка, при ухудшении видимости до 1 км и менее - туман. В сухую погоду видимость может ухудшаться дымом, пылью или мглою.
Атмосферные явления - указаны явления, наблюдавшиеся в указанный момент времени.
Облачность - указаны через наклонную черту верхняя и нижняя облачность в баллах и высота нижней границы облаков в метрах. Внимание: облачность, как и прочие метеорологические величины в США измеряются автоматическими метеостанциями. Указанные значения в баллах носят условный характер и показывают процент времени, в течение которого, в среднем, лазерный луч высотомера отражался от облаков обратно.
T - Температура воздуха - температура, измеренная на высоте 2 м над землей.
Td - Температура точки росы - температура, при понижении до которой содержащийся в воздухе водяной пар достигнет насыщения.
f - Относительная влажность воздуха - влажноcть воздуха, измеренная на высоте 2 м над землей.
Te - Эффективная температура - температура, которую ощущает одетый по сезону человек в тени. Характеристика душности погоды. При расчете учитывается влияние влажности воздуха и скорости ветра на теплоощущения человека.
Tes - Эффективная температура на солнце - температура, которую ощущает человек, с поправкой на солнечный нагрев. Характеристика знойности погоды. Зависит от высоты солнца над горизонтом, облачности и скорости ветра. Ночью, в пасмурную погоду, а также при ветре 12 м/с и более поправка равна нулю.
P - Атмосферное давление - приведенное к уровню моря атмосферное давление.
Po - Атмосферное давление - измеренное на уровне метеостанции атмосферное давление.
Tmin - Минимальная температура - минимум температуры воздуха на высоте 2 м над землей.
Tmax - Максимальная температура - максимум температуры воздуха на высоте 2 м над землей.
R - Количество осадков - Количество выпавших осадков за 3 или 6 часов, мм.
SD - Снежный покров - Высота снежного покрова, см.